Flag for U.S.A. Weather past 2 weeks in Salt Lake City, Utah, U.S.A.

Now
38 °F

Passing clouds.


Feels Like: 32 °F
Forecast: 25 / 47 °F
Wind: 8 mph from Northwest

Location: Salt Lake City International Airport

Current Time: Mar 4, 2015 at 5:12:07 PM

Latest Report: Mar 4, 2015 at 4:53 PM


Visibility: 10 mi

Pressure: 30.28 "Hg

Humidity: 46%

Dew point: 19 °F

Location of Salt Lake CityLocation

Historic Weather in Salt Lake City — Graph

°F

Salt Lake City temperature yesterday

Maximum temperature yesterday: 37 °F (at 3:53 PM)
Minimum temperature yesterday: 30 °F (at 10:53 PM)
Average temperature yesterday: 34 °F

Past Weeks' High & Low Weather Summary

 TemperatureHumidityPressure
High61 °F (Feb 19, 2:53 PM)100% (Mar 2, 7:53 PM)30.33 "Hg (Mar 2, 7:53 PM)
Low23 °F (Feb 23, 5:53 AM)18% (Feb 18, 2:53 PM)29.59 "Hg (Mar 2, 3:53 PM)
Average37 °F60%30.00 "Hg
* Reported Feb 17 3:53 PM — Mar 4 3:53 PM, Salt Lake City, Weather by CustomWeather, © 2015

Note: Actual official high and low records may vary slightly from our data, if they occured in-between our weather recording intervals... More about our weather records

Advertising

Salt Lake City weather history for previous 24 hours

 ConditionsComfort  
Time TempWeatherWind HumidityBarometerVisibility
3:53 PM
Wed, Mar 4
39 °FPassing clouds.9 mph45%30.26 "Hg10 mi
2:53 PM39 °FPassing clouds.7 mph45%30.25 "Hg10 mi
1:53 PM37 °FScattered clouds.No wind48%30.26 "Hg10 mi
12:53 PM37 °FPassing clouds.9 mph48%30.26 "Hg10 mi
11:53 AM35 °FScattered clouds.7 mph56%30.26 "Hg10 mi
10:53 AM34 °FPassing clouds.5 mph70%30.25 "Hg10 mi
9:53 AM33 °FPassing clouds.7 mph66%30.23 "Hg10 mi
8:53 AM30 °FScattered clouds.6 mph69%30.21 "Hg10 mi
7:53 AM28 °FScattered clouds.7 mph78%30.19 "Hg10 mi
6:53 AM26 °FPassing clouds.6 mph81%30.15 "Hg10 mi
5:53 AM27 °FPassing clouds.6 mph81%30.12 "Hg10 mi
4:53 AM27 °FPassing clouds.6 mph81%30.10 "Hg10 mi
3:53 AM28 °FPassing clouds.6 mph75%30.08 "Hg10 mi
2:53 AM29 °FPassing clouds.6 mph75%30.07 "Hg10 mi
1:53 AM29 °FPassing clouds.7 mph75%30.06 "Hg10 mi
12:53 AM29 °FPassing clouds.6 mph75%30.06 "Hg10 mi
11:53 PM
Tue, Mar 3
30 °FPassing clouds.7 mph82%30.04 "Hg10 mi
10:53 PM30 °FPassing clouds.7 mph85%30.04 "Hg10 mi
9:53 PM32 °FPartly cloudy.5 mph79%30.03 "Hg10 mi
8:53 PM32 °FPartly cloudy.5 mph82%30.02 "Hg10 mi
7:53 PM32 °FPassing clouds.3 mph79%29.98 "Hg10 mi
7:00 PM32 °FLight snow. Passing clouds.10 mph82%29.95 "Hg8 mi
5:53 PM36 °FPartly sunny.7 mph59%29.90 "Hg10 mi
Weather by CustomWeather, © 2015

See weather overviewHow to use our weather pages